Murren, Switzerland 16 day weather forecast

Slopes altitude range 945 m - 2970m

Number of lifts: 44 Pistes: 213km

In some cases the lift and piste totals shown are for the ski domain (e.g. Three Valleys) rather than individual resort (e.g. Courchevel)

Overview

The 16 day weather forecast is fully updated 4 times every day.

    • Thu 21 JUN 2018
    • Thu 21
    • 8C 13C
    • Fri 22 JUN 2018
    • Fri 22
    • 2C 7C
    • Sat 23 JUN 2018
    • Sat 23
    • 3C 8C
    • Sun 24 JUN 2018
    • Sun 24
    • 3C 6C
    • Mon 25 JUN 2018
    • Mon 25
    • 3C 8C
    • Tue 26 JUN 2018
    • Tue 26
    • 4C 9C
    • Wed 27 JUN 2018
    • Wed 27
    • 6C 11C
    • Thu 28 JUN 2018
    • Thu 28
    • 7C 11C
    • Fri 29 JUN 2018
    • Fri 29
    • 12C 21C
    • Sat 30 JUN 2018
    • Sat 30
    • 15C 24C
    • Sun 01 JUL 2018
    • Sun 01
    • 17C 22C
    • Mon 02 JUL 2018
    • Mon 02
    • 13C 18C
    • Tue 03 JUL 2018
    • Tue 03
    • 10C 22C
    • Wed 04 JUL 2018
    • Wed 04
    • 9C 22C
    • Thu 05 JUL 2018
    • Thu 05
    • 10C 24C
    • Fri 06 JUL 2018
    • Fri 06
    • 13C 26C

Date:

Time Type 0°C level Temp Chill Snow Cloud Speed Gust Dir Press
18:00 3947m 13°C 13_8 0cm 90% 8mph 9mph 1017mB
21:00 3733m 6°C 6_7 0cm 100% 7mph 8mph 1019mB
0:00 3510m 5°C 5_8 0cm 100% 8mph 10mph 1020mB
3:00 3186m 3°C 3_8 0cm 100% 8mph 9mph 1020mB
6:00 2849m 2°C 2_8 0cm 100% 8mph 9mph 1021mB
9:00 2884m 2°C 2_10 0cm 99% 10mph 11mph 1020mB
12:00 3101m 7°C 7_11 0cm 99% 11mph 12mph 1019mB
15:00 3122m 7°C 7_11 0cm 89% 11mph 11mph 1020mB
18:00 2878m 7°C 7_11 0cm 44% 11mph 12mph 1021mB
21:00 2490m -1°C -1_6 0cm 31% 6mph 7mph 1024mB
0:00 2247m -2°C -2_4 0cm 52% 4mph 5mph 1025mB
3:00 1958m -4°C -4_4 0cm 39% 4mph 5mph 1025mB
6:00 3348m -4°C -4_5 0cm 20% 5mph 6mph 1024mB
9:00 3152m 3°C 3_7 0cm 0% 7mph 7mph 1023mB
12:00 3347m 8°C 8_9 0cm 0% 9mph 9mph 1021mB
15:00 3372m 8°C 8_10 0cm 0% 10mph 10mph 1020mB
18:00 3264m 8°C 8_8 0cm 24% 8mph 9mph 1020mB
21:00 2469m -1°C -1_4 0cm 46% 4mph 5mph 1022mB
0:00 2552m -2°C -2_4 0cm 68% 4mph 5mph 1021mB
3:00 3091m 1°C 1_3 1cm 100% 3mph 4mph 1020mB
6:00 3035m 1°C 1_6 1cm 90% 6mph 7mph 1020mB
9:00 2981m 3°C 3_9 0cm 85% 9mph 9mph 1019mB
12:00 3111m 6°C 6_9 1cm 83% 9mph 9mph 1018mB
15:00 3084m 7°C 7_9 0cm 86% 9mph 10mph 1018mB
18:00 2978m 7°C 7_7 0cm 92% 7mph 8mph 1018mB
21:00 2607m 0°C 0_4 0cm 78% 4mph 5mph 1020mB
0:00 2113m -3°C -3_3 0cm 72% 3mph 5mph 1020mB
3:00 2191m -3°C -3_4 0cm 100% 4mph 5mph 1019mB
6:00 3098m -3°C -3_6 0cm 100% 6mph 6mph 1019mB
9:00 3122m 3°C 3_7 0cm 0% 7mph 7mph 1018mB
12:00 3332m 8°C 8_8 0cm 1% 8mph 8mph 1017mB
15:00 3333m 8°C 8_9 0cm 6% 9mph 9mph 1016mB
18:00 3170m 8°C 8_7 0cm 11% 7mph 8mph 1017mB
21:00 2403m -1°C -1_3 0cm 34% 3mph 4mph 1020mB
0:00 2264m -2°C -2_4 0cm 23% 4mph 5mph 1019mB
3:00 2211m -2°C -2_4 0cm 0% 4mph 4mph 1019mB
6:00 3261m -2°C -2_2 0cm 0% 2mph 2mph 1019mB
9:00 3281m 4°C 4_2 0cm 0% 2mph 2mph 1018mB
12:00 3457m 9°C 9_4 0cm 15% 4mph 4mph 1016mB
15:00 3537m 8°C 8_6 0cm 87% 6mph 6mph 1016mB
18:00 3573m 9°C 9_4 0cm 88% 4mph 4mph 1017mB
21:00 3577m 2°C 2_4 0cm 73% 4mph 5mph 1019mB
0:00 3194m 1°C 1_4 0cm 52% 4mph 5mph 1019mB
3:00 2955m 0°C 0_2 0cm 52% 2mph 2mph 1019mB
6:00 3701m -1°C -1_4 0cm 35% 4mph 4mph 1019mB
9:00 3628m 6°C 6_6 0cm 0% 6mph 6mph 1018mB
12:00 3699m 11°C 11_6 0cm 0% 6mph 6mph 1016mB
15:00 3746m 11°C 11_7 0cm 7% 7mph 7mph 1016mB
18:00 3778m 11°C 11_5 0cm 34% 5mph 6mph 1016mB
21:00 3913m 2°C 2_2 0cm 43% 2mph 2mph 1018mB
0:00 3367m 1°C 1_3 0cm 29% 3mph 3mph 1018mB
3:00 2948m 0°C 0_1 0cm 0% 1mph 2mph 1017mB
6:00 3942m -1°C -1_3 0cm 0% 3mph 4mph 1016mB
9:00 3800m 7°C 7_5 0cm 0% 5mph 5mph 1015mB
12:00 3817m 11°C 11_7 0cm 0% 7mph 7mph 1013mB
15:00 3691m 11°C 11_9 0cm 51% 9mph 9mph 1011mB
18:00 3644m 11°C 11_7 0cm 66% 7mph 8mph 1012mB
21:00 3789m 1°C 1_2 0cm 59% 2mph 3mph 1013mB
0:00 2322m -1°C -1_0 0cm 48% 0mph 2mph 1013mB
3:00 3562m 8°C 8_2 0cm 0% 2mph 2mph 1012mB
6:00 3503m 7°C 7_2 0cm 0% 2mph 3mph 1012mB
9:00 3473m 12°C 12_5 0cm 0% 5mph 6mph 1010mB
12:00 3629m 21°C 21_5 0cm 0% 5mph 4mph 1009mB
15:00 3632m 22°C 22_4 0cm 1% 4mph 4mph 1008mB
18:00 3627m 22°C 22_4 0cm 1% 4mph 8mph 1008mB
21:00 3597m 12°C 12_5 0cm 1% 5mph 6mph 1010mB
0:00 3553m 11°C 11_5 0cm 0% 5mph 7mph 1010mB
3:00 3514m 10°C 10_5 0cm 0% 5mph 7mph 1010mB
6:00 3575m 10°C 10_4 0cm 0% 4mph 6mph 1009mB
9:00 3644m 15°C 15_6 0cm 0% 6mph 9mph 1008mB
12:00 3730m 24°C 24_7 0cm 0% 7mph 12mph 1006mB
15:00 3827m 24°C 24_8 0cm 0% 8mph 14mph 1006mB
18:00 3775m 24°C 24_3 0cm 0% 3mph 7mph 1006mB
21:00 3760m 14°C 14_4 0cm 1% 4mph 4mph 1008mB
0:00 3834m 13°C 13_4 0cm 17% 4mph 5mph 1008mB
3:00 3835m 13°C 13_4 0cm 42% 4mph 6mph 1007mB
6:00 3741m 13°C 13_2 0cm 69% 2mph 3mph 1006mB
9:00 3735m 17°C 17_4 0cm 100% 4mph 5mph 1005mB
12:00 3839m 22°C 22_5 0cm 100% 5mph 6mph 1004mB
Morning 0.520833mm 6.1875 3531m 13°C 13_5 0cm 66% 5mph 10mph 1008mB
Afternoon 0.208333mm 1.375 3549m 18°C 18_4 0cm 79% 4mph 4mph 1009mB
Morning 0.463542mm 5.5625 3768m 11°C 11_1 0cm 22% 1mph 1mph 1014mB
Afternoon 0mm 0 3847m 22°C 22_6 0cm 8% 6mph 6mph 1014mB
Morning 0mm 0 3775m 11°C 11_4 0cm 2% 4mph 4mph 1019mB
Afternoon 0mm 0 3687m 22°C 22_7 0cm 2% 7mph 6mph 1018mB
Morning 0mm 0 3848m 11°C 11_5 0cm 0% 5mph 5mph 1021mB
Afternoon 0mm 0 3970m 24°C 24_7 0cm 0% 7mph 7mph 1018mB
Morning 0mm 0 4015m 14°C 14_5 0cm 36% 5mph 5mph 1021mB
Afternoon 0mm 0 4216m 26°C 26_6 0cm 0% 6mph 5mph 1019mB
Morning 0mm 0 4358m 15°C 15_5 0cm 0% 5mph 6mph 1022mB
Afternoon 0mm 0 4340m 28°C 28_6 0cm 0% 6mph 8mph 1021mB

16 day outlook at a glance

Forecast issued: 21/06/2018 22:58:50

Chat

Your comments and questions. In a resort? Let us know what it's like!


Characters left 250

For terms and conditions see Readers Comments on the Cookie and privacy policy page.